Regional Weather Roundup
Issued by NWS

Home | Current Version | Previous Version | Text Only | Print | Product List | Glossary Off
Versions: 1 2 3 4 5 6 7 8 9 10 11 12 13 14 15 16 17 18 19 20 21 22 23 24 25 26 27 28 29 30 31 32 33 34 35 36 37 38 39 40 41 42 43 44 45 46 47 48 49 50

219
ASUS43 KLOT 281203
RWRIL

ILLINOIS REGIONAL WEATHER ROUNDUP
NATIONAL WEATHER SERVICE CHICAGO/ROMEOVILLE IL
700 AM CDT TUE MAR 28 2017

NOTE: "FAIR" INDICATES FEW OR NO CLOUDS BELOW 12,000 FEET WITH NO
SIGNIFICANT WEATHER AND/OR OBSTRUCTIONS TO VISIBILITY.

* THESE STATIONS ARE NOT UNDER NWS QUALITY CONTROL. THEY ALSO MAY NOT
  REPORT WEATHER SUCH AS PRECIPITATION OR FOG.

ILZ001-002-007-009-015-016-024-281300-
NORTHWEST ILLINOIS

CITY           SKY/WX    TMP DP  RH WIND       PRES   REMARKS
MOLINE         CLOUDY    48  44  86 NE5       30.05R
6HR MIN TEMP:  48; 6HR MAX TEMP:  50;

STERLING*      CLOUDY    44  43  96 NE7       30.07R FOG
SAVANNA*       CLOUDY    46  45  96 NE6       30.07R FOG
$$

ILZ003-004-008-010-011-017-018-281300-
NORTH CENTRAL ILLINOIS

CITY           SKY/WX    TMP DP  RH WIND       PRES   REMARKS
ROCKFORD       CLOUDY    43  38  82 NE10      30.09R
6HR MIN TEMP:  43; 6HR MAX TEMP:  46; 6HR PCP: TRACE;

FREEPORT*      CLOUDY    42  40  96 NE8       30.09R FOG
ROCHELLE*      CLOUDY    41  39  93 NE9       30.07R FOG
DE KALB*       CLOUDY    40  38  91 N13       30.07R FOG
PERU*          CLOUDY    42  39  89 NE9       30.07R FOG
$$

ILZ005-006-012>014-019>023-281300-
NORTHEAST ILLINOIS

CITY           SKY/WX    TMP DP  RH WIND       PRES   REMARKS
CHICAGO-OHARE  CLOUDY    41  35  79 NE13      30.06R
6HR MIN TEMP:  41; 6HR MAX TEMP:  42;

CHICAGO-MIDWAY CLOUDY    40  36  86 N18G24    30.07R
6HR MIN TEMP:  40; 6HR MAX TEMP:  42;

AURORA         CLOUDY    42  37  82 N10       30.06R
6HR MIN TEMP:  42; 6HR MAX TEMP:  43;

LANSING*       CLOUDY    38  38  97 N10       30.06R WCI  31
JOLIET*        CLOUDY    43  37  81 N9        30.06R
WAUKEGAN       CLOUDY    39  36  89 N7        30.07R WCI  34
6HR MIN TEMP:  39; 6HR MAX TEMP:  40;

DUPAGE AIRPORT CLOUDY    41  38  89 NE9       30.06R
6HR MIN TEMP:  40; 6HR MAX TEMP:  41;

WHEELING       CLOUDY    40  36  86 NE8       30.08R
6HR MIN TEMP:  40; 6HR MAX TEMP:  41;

MORRIS*        CLOUDY    42  37  84 NE5       30.05R
NORTHERLY ISL    N/A     38  35  89 N13         N/A  WCI  30
$$

LMZ740>746-281300-
SOUTHERN LAKE MICHIGAN

STATION/POSITION SKY/WX   TEMP    WIND        PRES    VSBY  WAVE
                          AIR SEA DIR/SP/G                  HT/PER
                          (F)     (DEG/KT/KT) (MB)    (MI)  (FT/S)
HARRISON CRIB              38     350/ 16/ 17   N/A
BURNHAM HARBOR             38     360/ 13/ 15   N/A
CALUMET HARBOR             38     340/ 12/ 17 1017.4R
BURNS HARBOR               38     360/ 10/ 12 1017.9R
MICHIGAN CITY              38     350/ 13/ 15   N/A
$$

ILZ025>027-034>036-040-047-049-050-058-095>099-281300-
WEST-CENTRAL ILLINOIS

CITY           SKY/WX    TMP DP  RH WIND       PRES   REMARKS
QUINCY         CLOUDY    49  47  93 NW3       30.05R FOG
GALESBURG*     CLOUDY    47  46  99 N6        30.04R FOG
MACOMB*        CLOUDY    48  47  97 N5        30.07R FOG
JACKSONVILLE*  CLOUDY    49  48  96 NW3       30.05R FOG
PITTSFIELD*    CLOUDY    50  49  95 NW3       30.06R FOG
$$

ILZ028>032-037-038-041>044-048-051>054-059>061-281300-
CENTRAL ILLINOIS

CITY           SKY/WX    TMP DP  RH WIND       PRES   REMARKS
PONTIAC        CLOUDY    43  42  97 N6        30.06R
BLOOMINGTON    CLOUDY    42  39  89 NE9       30.05R
DECATUR        CLOUDY    45  41  86 N8        30.04R
PEORIA         CLOUDY    47  44  90 NE5       30.05R
6HR MIN TEMP:  47; 6HR MAX TEMP:  51;

SPRINGFIELD    CLOUDY    50  47  89 NE10      30.04R FOG
6HR MIN TEMP:  50; 6HR MAX TEMP:  53;

TAYLORVILLE    NOT AVBL
$$

ILZ033-039-045-046-055>057-062-063-281300-
EAST-CENTRAL ILLINOIS

CITY           SKY/WX    TMP DP  RH WIND       PRES   REMARKS
CHAMPAIGN      CLOUDY    44  39  82 N12       30.02R
RANTOUL*       CLOUDY    43  39  86 N13       30.02R
MATTOON        CLOUDY    45  44  97 N8        30.00R
PARIS*         CLEAR     42  40  95 N5        30.01R
$$

ILZ079-100>102-281300-
SOUTHWEST ILLINOIS

CITY           SKY/WX    TMP DP  RH WIND       PRES   REMARKS
ALTON          CLOUDY    52  48  87 N6        30.04R
BELLEVILLE     CLOUDY    53  52  96 NW6       30.03R
CAHOKIA*       CLOUDY    53  49  86 N5        30.04R FOG
SPARTA*        CLOUDY    52  49  90 N7        30.03R
$$

ILZ064>066-069>071-074>076-080>082-084>086-088>090-092>094-281300-
SOUTH-CENTRAL ILLINOIS

CITY           SKY/WX    TMP DP  RH WIND       PRES   REMARKS
CARBONDALE     CLOUDY    53  51  93 N8        30.02R
6HR MIN TEMP:  53; 6HR MAX TEMP:  56;

CAIRO*         MOCLDY    54  52  92 N5        30.00R
EFFINGHAM*     CLOUDY    48  46  95 N5        30.03R
MARION         CLOUDY    55  54  94 NW3       30.02R
MT. VERNON     CLOUDY    52  49  89 N8        30.01R
CENTRALIA*     CLOUDY    53  50  91 N5        30.01R
SALEM*         CLOUDY    52  49  88 N6        30.02R
$$

ILZ067-068-072-073-078-083-087-091-281300-
SOUTHEAST ILLINOIS

CITY           SKY/WX    TMP DP  RH WIND       PRES   REMARKS
LAWRENCEVILLE  CLOUDY    51  49  92 N13       29.98R FOG
FLORA*         CLOUDY    52  49  90 N8        30.01R FOG
FAIRFIELD*     CLOUDY    52  50  95 N8        30.00R FOG
HARRISBURG*    CLOUDY    54  52  91 N6        29.99R
ROBINSON*      CLOUDY    48  47  97 N9        30.00R FOG
CARMI*         CLOUDY    54  52  94 N10       29.98R FOG
$$

ABBREVIATIONS USED IN REMARKS
   TC - TEMPERATURE IN CELSIUS
  WCI - WIND CHILL INDEX
   HX - HEAT INDEX
  VSB - VISIBILITY
$$





USA.gov is the U.S. government's official web portal to all federal, state and local government web resources and services.